Regional Weather Roundup
Issued by NWS

Home | Current Version | Previous Version | Text Only | Print | Product List | Glossary Off
Versions: 1 2 3 4 5 6 7 8 9 10 11 12 13 14 15 16 17 18 19 20 21 22 23 24 25 26 27 28 29 30 31 32 33 34 35 36 37 38 39 40 41 42 43 44 45 46 47 48 49 50

482
ASUS44 KMEG 261700
RWRTN
TENNESSEE HOURLY STATE WEATHER ROUNDUP
NATIONAL WEATHER SERVICE MEMPHIS TN
1200 PM CDT TUE JUL 26 2016

TNZ002-004-019-021-049-052-054-088>092-261800-
WEST TENNESSEE

CITY           SKY/WX    TMP DP  RH WIND       PRES   REMARKS
MEMPHIS INTL   MOSUNNY   94  75  54 CALM      30.00F HX 105
NWS MEMPHIS      N/A     94 N/A N/A MISG        N/A
JACKSON        SUNNY     92  72  51 CALM      30.01F HX  99
DYERSBURG      SUNNY    N/A N/A N/A MISG      30.00
PARIS          SUNNY     88  73  62 VRB3      30.04S HX  96
$$

TNZ008-025-027-028-033-062-065-066-261800-
NORTH MIDDLE TENNESSEE

CITY           SKY/WX    TMP DP  RH WIND       PRES   REMARKS
NASHVILLE      MOSUNNY   94  68  42 VRB5      30.03F HX  98
CLARKSVILLE    SUNNY     89  75  63 SW8       30.03S HX  99
COOKEVILLE     SUNNY     91  75  59 CALM      30.06F HX 102
CROSSVILLE     CLOUDY    83  73  72 CALM      30.12F
$$

TNZ061-075-076-078-094-096-097-261800-
SOUTH MIDDLE TENNESSEE

CITY           SKY/WX    TMP DP  RH WIND       PRES   REMARKS
TULLAHOMA      SUNNY     88  70  55 NW6       30.08S HX  92
WINCHESTER     SUNNY     88  72  58 VRB6      30.07S HX  94
MCMINNVILLE    SUNNY     88  75  66 NW5       30.07S HX  97
COLUMBIA       MOSUNNY   93  72  49 VRB3      30.02F HX 100
SHELBYVILLE    SUNNY     91  77  62 S3        30.06S HX 105
$$

TNZ017-018-042-046-047-261800-
NORTHEAST TENNESSEE

CITY           SKY/WX    TMP DP  RH WIND       PRES   REMARKS
TRI CITIES     PTSUNNY   89  68  49 VRB3      30.09F HX  93
$$

TNZ012-013-036-069-073-074-261800-
CENTRAL EAST TENNESSEE

CITY           SKY/WX    TMP DP  RH WIND       PRES   REMARKS
KNOXVILLE      CLOUDY    87  71  58 W5        30.06F HX  93
OAK RIDGE      CLOUDY    88  72  58 VRB3      30.07F HX  94
GATLINBURG       N/A     90  70  51 VRB3      30.05F HX  95
$$

TNZ083-085-099-261800-
SOUTHEAST TENNESSEE

CITY           SKY/WX    TMP DP  RH WIND       PRES   REMARKS
CHATTANOOGA    PTSUNNY   92  71  50 CALM      30.05F HX  98
$$

SKY/WX REPORTED AS FAIR MEANS FEW OR NO CLOUDS BELOW
12 THOUSAND FEET.





USA.gov is the U.S. government's official web portal to all federal, state and local government web resources and services.